Taos, NM

10:33 PM MST on February 24, 2017 (GMT -0700)
Taos Municipal

Weather History for KSKX - April, 2013

Change the Weather History Date:

Monday, April 22, 2013

  Actual Average Record
Temperature  
Mean Temperature 48 °F -  
Max Temperature 71 °F 59 °F 77 °F (2012)
Min Temperature 24 °F 27 °F 19 °F (2002)
Degree Days  
Heating Degree Days 18    
Moisture  
Dew Point 14 °F    
Average Humidity 23    
Maximum Humidity 47    
Minimum Humidity 12    
Precipitation  
Precipitation 0.00 in - - ()
Sea Level Pressure  
Sea Level Pressure 30.01 in    
Wind  
Wind Speed 10 mph (West)    
Max Wind Speed 33 mph    
Max Gust Speed 46 mph    
Visibility 10 miles    
Events      
Averages and records for this station are not official NWS values.
T = Trace of Precipitation, MM = Missing Value Source: NWS Daily Summary

Daily Weather History Graph

Daily Weather History Graph

Search for Another Location

Airport or City:

Trip Planner

Search our weather history database for the weather conditions in past years. The results will help you decide how hot, cold, wet, or windy it might be!

Date:

Astronomy

Apr. 22, 2013 Rise Set
Actual Time 6:19 AM MDT 7:43 PM MDT
Civil Twilight 5:52 AM MDT 8:10 PM MDT
Nautical Twilight 5:20 AM MDT 8:42 PM MDT
Astronomical Twilight 4:46 AM MDT 9:16 PM MDT
Moon 4:39 PM MDT (4/22) 4:10 AM MDT (4/22)
Length of Visible Light 14h 17m
Length of Day
13h 23m
Waxing Gibbous, 88% of the Moon is Illuminated
Apr 22
Waxing Gibbous
Apr 25
Full
May 2
Last Quarter
May 9
New
May 17
First Quarter

Hourly Weather History & Observations

Time (MDT) Temp. Windchill Dew Point Humidity Pressure Visibility Wind Dir Wind Speed Gust Speed Precip Events Conditions
12:15 AM 41.0 °F 34.3 °F 8.6 °F 26% 30.12 in 10.0 mi East 11.5 mph - N/A   Mostly Cloudy
12:35 AM 41.0 °F 35.8 °F 8.6 °F 26% 30.12 in 10.0 mi SSE 8.1 mph - N/A   Overcast
12:55 AM 39.2 °F 35.0 °F 6.8 °F 26% 30.12 in 10.0 mi ESE 5.8 mph - N/A   Overcast
1:15 AM 39.2 °F 35.9 °F 8.6 °F 28% 30.11 in 10.0 mi South 4.6 mph - N/A   Mostly Cloudy
1:35 AM 42.8 °F 40.1 °F 8.6 °F 25% 30.10 in 10.0 mi West 4.6 mph - N/A   Mostly Cloudy
1:55 AM 42.8 °F 41.1 °F 8.6 °F 25% 30.09 in 10.0 mi NW 3.5 mph - N/A   Partly Cloudy
2:15 AM 35.6 °F 31.7 °F 5.0 °F 28% 30.09 in 10.0 mi NE 4.6 mph - N/A   Clear
2:35 AM 33.8 °F 27.7 °F 6.8 °F 32% 30.08 in 10.0 mi ENE 6.9 mph - N/A   Clear
2:55 AM 35.6 °F 30.7 °F 6.8 °F 30% 30.08 in 10.0 mi East 5.8 mph - N/A   Clear
3:15 AM 35.6 °F 29.9 °F 8.6 °F 33% 30.08 in 10.0 mi East 6.9 mph - N/A   Clear
3:35 AM 32.0 °F - 6.8 °F 35% 30.07 in 10.0 mi Calm Calm - N/A   Clear
3:55 AM 30.2 °F 25.4 °F 6.8 °F 37% 30.07 in 10.0 mi North 4.6 mph - N/A   Clear
4:15 AM 33.8 °F 30.8 °F 10.4 °F 38% 30.07 in 10.0 mi North 3.5 mph - N/A   Clear
4:35 AM 30.2 °F - 6.8 °F 37% 30.07 in 10.0 mi Calm Calm - N/A   Clear
4:55 AM 30.2 °F - 8.6 °F 40% 30.07 in 10.0 mi Calm Calm - N/A   Clear
5:15 AM 30.2 °F - 10.4 °F 44% 30.07 in 10.0 mi Calm Calm - N/A   Clear
5:35 AM 30.2 °F 25.4 °F 8.6 °F 40% 30.06 in 10.0 mi ENE 4.6 mph - N/A   Clear
5:55 AM 28.4 °F 23.3 °F 8.6 °F 43% 30.06 in 10.0 mi ENE 4.6 mph - N/A   Clear
6:15 AM 24.8 °F 16.9 °F 6.8 °F 46% 30.07 in 10.0 mi NNW 6.9 mph - N/A   Clear
6:35 AM 24.8 °F 19.1 °F 6.8 °F 46% 30.07 in 10.0 mi North 4.6 mph - N/A   Clear
6:55 AM 28.4 °F 24.6 °F 10.4 °F 47% 30.07 in 10.0 mi North 3.5 mph - N/A   Clear
7:15 AM 32.0 °F - 10.4 °F 41% 30.07 in 10.0 mi Calm Calm - N/A   Clear
7:35 AM 37.4 °F 33.8 °F 15.8 °F 41% 30.08 in 10.0 mi ESE 4.6 mph - N/A   Clear
7:55 AM 42.8 °F 39.3 °F 17.6 °F 36% 30.07 in 10.0 mi ESE 5.8 mph - N/A   Clear
8:15 AM 48.2 °F - 17.6 °F 30% 30.08 in 10.0 mi SSE 5.8 mph - N/A   Clear
8:35 AM 50.0 °F - 17.6 °F 28% 30.07 in 10.0 mi South 10.4 mph - N/A   Clear
8:55 AM 51.8 °F - 17.6 °F 26% 30.08 in 10.0 mi SSW 10.4 mph - N/A   Clear
9:15 AM 53.6 °F - 19.4 °F 26% 30.08 in 10.0 mi South 6.9 mph - N/A   Clear
9:35 AM 55.4 °F - 19.4 °F 25% 30.08 in 10.0 mi SSW 6.9 mph - N/A   Clear
9:55 AM 57.2 °F - 19.4 °F 23% 30.07 in 10.0 mi South 6.9 mph - N/A   Clear
10:15 AM 59.0 °F - 19.4 °F 22% 30.07 in 10.0 mi SW 11.5 mph 19.6 mph N/A   Clear
10:35 AM 60.8 °F - 19.4 °F 20% 30.06 in 10.0 mi WSW 11.5 mph 19.6 mph N/A   Clear
10:55 AM 62.6 °F - 19.4 °F 19% 30.06 in 10.0 mi WNW 19.6 mph 24.2 mph N/A   Clear
11:15 AM 64.4 °F - 19.4 °F 18% 30.06 in 10.0 mi WNW 13.8 mph 19.6 mph N/A   Clear
11:35 AM 66.2 °F - 19.4 °F 17% 30.04 in 10.0 mi WNW 17.3 mph 28.8 mph N/A   Partly Cloudy
11:55 AM 68.0 °F - 19.4 °F 16% 30.04 in 10.0 mi West 26.5 mph 34.5 mph N/A   Partly Cloudy
12:15 PM 66.2 °F - 17.6 °F 15% 30.03 in 10.0 mi WNW 16.1 mph 36.8 mph N/A   Clear
12:35 PM 68.0 °F - 17.6 °F 15% 30.02 in 10.0 mi West 28.8 mph 34.5 mph N/A   Clear
12:55 PM 69.8 °F - 17.6 °F 14% 30.01 in 10.0 mi WNW 25.3 mph 39.1 mph N/A   Clear
1:15 PM 69.8 °F - 17.6 °F 14% 29.99 in 10.0 mi West 26.5 mph 36.8 mph N/A   Clear
1:35 PM 69.8 °F - 17.6 °F 14% 29.99 in 10.0 mi WNW 26.5 mph 42.6 mph N/A   Partly Cloudy
1:55 PM 69.8 °F - 17.6 °F 14% 29.99 in 10.0 mi WNW 27.6 mph 42.6 mph N/A   Clear
2:15 PM 69.8 °F - 17.6 °F 14% 29.98 in 10.0 mi West 33.4 mph 41.4 mph N/A   Partly Cloudy
2:35 PM 69.8 °F - 15.8 °F 13% 29.98 in 10.0 mi West 23.0 mph 34.5 mph N/A   Partly Cloudy
2:55 PM 69.8 °F - 15.8 °F 13% 29.97 in 9.0 mi WNW 23.0 mph 43.7 mph N/A   Scattered Clouds
3:15 PM 71.6 °F - 15.8 °F 12% 29.96 in 10.0 mi West 28.8 mph 46.0 mph N/A   Scattered Clouds
3:35 PM 71.6 °F - 15.8 °F 12% 29.96 in 10.0 mi West 24.2 mph 35.7 mph N/A   Partly Cloudy
3:55 PM 71.6 °F - 15.8 °F 12% 29.95 in 10.0 mi West 19.6 mph 40.3 mph N/A   Partly Cloudy
4:15 PM 71.6 °F - 15.8 °F 12% 29.94 in 10.0 mi NW 24.2 mph 32.2 mph N/A   Clear
4:35 PM 69.8 °F - 15.8 °F 13% 29.93 in 10.0 mi WNW 20.7 mph 34.5 mph N/A   Clear
4:55 PM 71.6 °F - 15.8 °F 12% 29.92 in 10.0 mi WNW 18.4 mph 26.5 mph N/A   Partly Cloudy
5:15 PM 69.8 °F - 15.8 °F 13% 29.92 in 10.0 mi WNW 17.3 mph 29.9 mph N/A   Partly Cloudy
5:35 PM 69.8 °F - 15.8 °F 13% 29.91 in 10.0 mi WNW 20.7 mph 27.6 mph N/A   Clear
5:55 PM 69.8 °F - 14.0 °F 12% 29.91 in 10.0 mi West 16.1 mph 26.5 mph N/A   Clear
6:15 PM 69.8 °F - 14.0 °F 12% 29.90 in 10.0 mi West 21.9 mph 26.5 mph N/A   Clear
6:35 PM 68.0 °F - 14.0 °F 12% 29.91 in 10.0 mi West 15.0 mph 21.9 mph N/A   Clear
6:55 PM 66.2 °F - 14.0 °F 13% 29.91 in 10.0 mi West 18.4 mph 23.0 mph N/A   Clear
7:15 PM 64.4 °F - 14.0 °F 14% 29.91 in 10.0 mi West 16.1 mph - N/A   Clear
7:35 PM 62.6 °F - 12.2 °F 14% 29.91 in 10.0 mi West 10.4 mph - N/A   Clear
7:55 PM 59.0 °F - 12.2 °F 16% 29.91 in 10.0 mi West 11.5 mph - N/A   Clear
8:15 PM 57.2 °F - 12.2 °F 17% 29.92 in 10.0 mi West 6.9 mph - N/A   Clear
8:35 PM 55.4 °F - 12.2 °F 18% 29.93 in 10.0 mi WNW 5.8 mph - N/A   Partly Cloudy
8:55 PM 55.4 °F - 12.2 °F 18% 29.92 in 10.0 mi West 8.1 mph - N/A   Scattered Clouds
9:15 PM 55.4 °F - 12.2 °F 18% 29.92 in 10.0 mi West 6.9 mph - N/A   Scattered Clouds
9:35 PM 53.6 °F - 12.2 °F 19% 29.92 in 10.0 mi Calm Calm - N/A   Partly Cloudy
9:55 PM 55.4 °F - 15.8 °F 21% 29.93 in 10.0 mi Calm Calm - N/A   Scattered Clouds
10:15 PM 55.4 °F - 15.8 °F 21% 29.92 in 10.0 mi Calm Calm - N/A   Scattered Clouds
10:35 PM 53.6 °F - 15.8 °F 22% 29.92 in 10.0 mi NE 5.8 mph - N/A   Partly Cloudy
10:55 PM 53.6 °F - 15.8 °F 22% 29.92 in 10.0 mi Calm Calm - N/A   Scattered Clouds
11:15 PM 57.2 °F - 15.8 °F 20% 29.91 in 10.0 mi Calm Calm - N/A   Mostly Cloudy
11:35 PM 57.2 °F - 14.0 °F 18% 29.90 in 10.0 mi WSW 4.6 mph - N/A   Mostly Cloudy
11:55 PM 55.4 °F - 14.0 °F 20% 29.89 in 10.0 mi SSW 8.1 mph - N/A   Scattered Clouds